This is the latest recevied weather packets stored in our database for station/object IK2ILW-4. If no packets are shown the sender has not sent any weather packets the latest 10 day(s).
| Time | Temp. | Humidity | Pressure | Rain* | Wind** | Luminosity | Snow |
|---|---|---|---|---|---|---|---|
| 1788010657 | 20° C | 77% | 1020.1 hPa | 0.25 mm | - | 178 W/m² | - |
| 1788010366 | 20° C | 77% | 1020.1 hPa | 0.25 mm | - | 200 W/m² | - |
| 1788010055 | 20° C | 76% | 1020.1 hPa | 0.25 mm | - | 190 W/m² | - |
| 1788009764 | 20° C | 77% | 1020.1 hPa | 0.25 mm | - | 179 W/m² | - |
| 1788009474 | 20° C | 76% | 1020.1 hPa | 0.25 mm | - | 174 W/m² | - |
| 1788009157 | 20° C | 73% | 1019.9 hPa | 0.25 mm | - | 227 W/m² | - |
| 1788008854 | 20.56° C | 73% | 1019.9 hPa | 0.25 mm | - | 202 W/m² | - |
| 1788008551 | 20.56° C | 75% | 1019.9 hPa | 0.25 mm | - | 243 W/m² | - |
| 1788008261 | 20.56° C | 73% | 1020 hPa | 0.25 mm | - | 200 W/m² | - |
| 1788007958 | 21.11° C | 72% | 1020 hPa | 0.25 mm | - | 183 W/m² | - |
| 1788007656 | 21.11° C | 70% | 1020 hPa | 0.25 mm | - | 374 W/m² | - |
| 1788007355 | 21.11° C | 71% | 1020 hPa | 0.25 mm | - | 207 W/m² | - |
| 1788007060 | 20.56° C | 75% | 1020 hPa | 0.25 mm | - | 691 W/m² | - |
| 1788006769 | 20.56° C | 74% | 1020 hPa | 0.25 mm | - | 165 W/m² | - |
| 1788006451 | 20.56° C | 73% | 1019.8 hPa | 0.25 mm | - | 148 W/m² | - |
| 1788006169 | 20.56° C | 73% | 1019.8 hPa | 0.25 mm | - | 313 W/m² | - |
| 1788005874 | 21.11° C | 72% | 1019.8 hPa | 0.25 mm | - | 220 W/m² | - |
| 1788005570 | 21.67° C | 71% | 1020 hPa | 0.25 mm | - | 805 W/m² | - |
| 1788005260 | 21.67° C | 74% | 1020 hPa | 0.25 mm | - | 877 W/m² | - |
| 1788004972 | 21.11° C | 74% | 1020 hPa | 0.25 mm | - | 907 W/m² | - |
| 1788004655 | 20.56° C | 75% | 1020 hPa | 0.25 mm | - | 443 W/m² | - |
| 1788004372 | 20.56° C | 72% | 1020 hPa | 0.25 mm | - | 243 W/m² | - |
| 1788004059 | 20.56° C | 72% | 1020 hPa | 0.25 mm | - | 831 W/m² | - |
| 1788003754 | 21.11° C | 72% | 1020.1 hPa | 0.25 mm | - | 448 W/m² | - |
| 1788003464 | 20.56° C | 76% | 1020.1 hPa | 0.25 mm | - | 877 W/m² | - |
* Rain since midnight (hover to see other rain measurements)
** Current wind speed in m/s (hover to see current wind gust speed)